sat.trackr.live / text

‹ back to catalog

FLOCK 4H-22

NORAD 66725 · 2025-276BM

PAYLOAD ACTIVE UNKNOWN

§ Identity

Operator
Country
US
Launch date
2025-11-28
Launch site
AFWTR
Launch vehicle
Mass (kg)
RCS (m²)

Purposes: earth_obs

External: N2YO · Heavens-Above · Gunter

§ Orbital elements

Epoch: 2026-09-19T22:24:12.049056Z

Period
94.66 min
Inclination
97.4093°
Eccentricity
0.0003949
Mean motion
15.21279362 rev/d
Perigee alt
499.3 km
Apogee alt
504.7 km
Semi-major
6,880.1 km
B*
2.1718e-4
RAAN
334.9180°
Arg perigee
71.9218°
Mean anomaly
288.2448°
Rev number
4,482

§ Raw data

FLOCK 4H-221 66725U 25276BM  26262.93347279  .00004787  00000+0  21718-3 0  99972 66725  97.4093 334.9180 0003949  71.9218 288.2448 15.21279362 44823

JSON: /api/v1/satellites/66725 · /tle

For live sub-satellite position, see the globe view (requires WebGL).

§ Visibility from observer

Set your observer location to see the next 7 days of passes ≥ 10°. The values pass through the URL so the page stays shareable.

No JS? Fill the form by hand. The geolocation button needs JavaScript.